Time,TemperatureF,DewpointF,PressureIn,WindDirection,WindDirectionDegrees,WindSpeedMPH,WindSpeedGustMPH,Humidity,HourlyPrecipIn,Conditions,Clouds,dailyrainin,SoftwareType,DateUTC
2017-05-28 00:00:00,63.5,60.8,29.94,NE,40,0.9,3.0,91,0.00,,,0.00,meteobridge,2017-05-28 04:00:00,
2017-05-28 00:05:00,63.3,60.6,29.94,North,359,0.9,3.0,91,0.00,,,0.00,meteobridge,2017-05-28 04:05:00,
2017-05-28 00:09:00,63.3,60.6,29.94,North,349,2.0,3.0,91,0.00,,,0.00,meteobridge,2017-05-28 04:09:00,
2017-05-28 00:14:00,63.1,60.4,29.94,North,6,0.9,2.0,91,0.00,,,0.00,meteobridge,2017-05-28 04:14:00,
2017-05-28 00:19:00,63.1,60.4,29.93,North,9,2.0,2.0,91,0.00,,,0.00,meteobridge,2017-05-28 04:19:00,
2017-05-28 00:24:00,63.1,60.4,29.93,NNE,25,2.9,4.0,91,0.00,,,0.00,meteobridge,2017-05-28 04:24:00,
2017-05-28 00:32:00,63.1,60.4,29.93,North,355,0.9,2.0,91,0.00,,,0.00,meteobridge,2017-05-28 04:32:00,
2017-05-28 00:37:00,63.1,60.4,29.93,ENE,60,0.0,2.0,91,0.00,,,0.00,meteobridge,2017-05-28 04:37:00,
2017-05-28 00:42:00,63.1,60.4,29.93,ENE,62,0.9,2.0,91,0.00,,,0.00,meteobridge,2017-05-28 04:42:00,
2017-05-28 00:47:00,63.0,60.3,29.93,NNE,25,2.9,5.0,91,0.00,,,0.00,meteobridge,2017-05-28 04:47:00,
2017-05-28 00:48:00,63.0,60.3,29.93,NNW,342,2.0,5.0,91,0.00,,,0.00,meteobridge,2017-05-28 04:48:00,
2017-05-28 00:53:00,62.8,60.4,29.93,NNW,347,0.0,1.0,92,0.00,,,0.00,meteobridge,2017-05-28 04:53:00,
2017-05-28 00:58:00,62.8,60.4,29.93,NW,321,0.0,1.0,92,0.00,,,0.00,meteobridge,2017-05-28 04:58:00,
2017-05-28 01:03:00,62.8,60.4,29.93,NNE,23,0.0,1.0,92,0.00,,,0.00,meteobridge,2017-05-28 05:03:00,
2017-05-28 01:08:00,62.8,60.4,29.92,NE,46,0.0,1.0,92,0.00,,,0.00,meteobridge,2017-05-28 05:08:00,
2017-05-28 01:13:00,62.8,60.1,29.92,ENE,57,0.0,1.0,91,0.00,,,0.00,meteobridge,2017-05-28 05:13:00,
2017-05-28 01:18:00,62.6,59.9,29.92,ESE,123,0.0,1.0,91,0.00,,,0.00,meteobridge,2017-05-28 05:18:00,
2017-05-28 01:23:00,62.4,60.1,29.92,ESE,113,0.9,1.0,92,0.00,,,0.00,meteobridge,2017-05-28 05:23:00,
2017-05-28 01:24:00,62.4,60.1,29.92,ESE,111,0.0,1.0,92,0.00,,,0.00,meteobridge,2017-05-28 05:24:00,
2017-05-28 01:29:00,62.2,59.9,29.92,ESE,112,0.0,1.0,92,0.00,,,0.00,meteobridge,2017-05-28 05:29:00,
2017-05-28 01:34:00,62.1,59.7,29.92,ESE,112,0.0,0.0,92,0.00,,,0.00,meteobridge,2017-05-28 05:34:00,
2017-05-28 01:39:00,62.1,60.1,29.91,ESE,112,0.0,0.0,93,0.00,,,0.00,meteobridge,2017-05-28 05:39:00,
2017-05-28 01:44:00,62.1,60.1,29.91,ESE,111,0.0,1.0,93,0.00,,,0.00,meteobridge,2017-05-28 05:44:00,
2017-05-28 01:49:00,62.1,60.1,29.91,East,87,0.0,1.0,93,0.00,,,0.00,meteobridge,2017-05-28 05:49:00,
2017-05-28 01:54:00,62.1,60.1,29.91,East,89,0.9,1.0,93,0.00,,,0.00,meteobridge,2017-05-28 05:54:00,
2017-05-28 01:59:00,62.1,60.1,29.91,WNW,298,0.9,1.0,93,0.00,,,0.00,meteobridge,2017-05-28 05:59:00,
2017-05-28 02:04:00,61.9,60.1,29.91,WSW,257,2.0,2.0,94,0.00,,,0.00,meteobridge,2017-05-28 06:04:00,
2017-05-28 02:09:00,61.9,60.1,29.91,WSW,254,0.0,0.0,94,0.00,,,0.00,meteobridge,2017-05-28 06:09:00,
2017-05-28 02:14:00,61.9,60.1,29.91,SW,224,0.0,2.0,94,0.00,,,0.00,meteobridge,2017-05-28 06:14:00,
2017-05-28 02:19:00,61.7,59.9,29.91,SW,222,0.0,1.0,94,0.00,,,0.00,meteobridge,2017-05-28 06:19:00,
2017-05-28 02:24:00,61.7,59.9,29.91,SW,222,0.0,0.0,94,0.00,,,0.00,meteobridge,2017-05-28 06:24:00,
2017-05-28 02:30:00,61.7,59.9,29.90,SW,222,0.9,1.0,94,0.00,,,0.00,meteobridge,2017-05-28 06:30:00,
2017-05-28 02:35:00,61.5,59.7,29.90,SW,223,0.0,1.0,94,0.00,,,0.00,meteobridge,2017-05-28 06:35:00,
2017-05-28 02:40:00,61.5,59.7,29.90,SE,131,0.0,1.0,94,0.00,,,0.00,meteobridge,2017-05-28 06:40:00,
2017-05-28 02:44:00,61.3,59.5,29.90,SE,131,0.0,0.0,94,0.00,,,0.00,meteobridge,2017-05-28 06:44:00,
2017-05-28 02:50:00,61.3,59.5,29.90,SE,131,0.0,0.0,94,0.00,,,0.00,meteobridge,2017-05-28 06:50:00,
2017-05-28 02:55:00,61.2,59.4,29.90,SE,131,0.0,0.0,94,0.00,,,0.00,meteobridge,2017-05-28 06:55:00,
2017-05-28 03:00:00,61.2,59.7,29.90,SE,146,0.9,1.0,95,0.00,,,0.00,meteobridge,2017-05-28 07:00:00,
2017-05-28 03:01:00,61.2,59.7,29.90,SSE,159,0.9,1.0,95,0.00,,,0.00,meteobridge,2017-05-28 07:01:00,
2017-05-28 03:06:00,61.2,59.7,29.90,SSE,162,2.0,2.0,95,0.00,,,0.00,meteobridge,2017-05-28 07:06:00,
2017-05-28 03:11:00,61.2,59.7,29.89,South,181,0.0,1.0,95,0.00,,,0.00,meteobridge,2017-05-28 07:11:00,
2017-05-28 03:16:00,61.2,59.7,29.90,South,181,0.9,1.0,95,0.00,,,0.00,meteobridge,2017-05-28 07:16:00,
2017-05-28 03:22:00,61.2,59.7,29.89,SSE,147,0.0,1.0,95,0.00,,,0.00,meteobridge,2017-05-28 07:22:00,
2017-05-28 03:27:00,61.3,59.9,29.89,ESE,111,0.0,1.0,95,0.00,,,0.00,meteobridge,2017-05-28 07:27:00,
2017-05-28 03:32:00,61.3,59.9,29.89,East,97,2.0,2.0,95,0.00,,,0.00,meteobridge,2017-05-28 07:32:00,
2017-05-28 03:37:00,61.5,60.1,29.88,ESE,120,0.9,1.0,95,0.00,,,0.00,meteobridge,2017-05-28 07:37:00,
2017-05-28 03:42:00,61.7,60.3,29.88,SE,132,0.0,1.0,95,0.00,,,0.00,meteobridge,2017-05-28 07:42:00,
2017-05-28 03:47:00,61.9,60.4,29.88,SE,132,0.9,1.0,95,0.00,,,0.00,meteobridge,2017-05-28 07:47:00,
2017-05-28 03:57:00,61.9,60.4,29.88,SSE,154,0.9,2.0,95,0.00,,,0.00,meteobridge,2017-05-28 07:57:00,
2017-05-28 04:02:00,62.1,60.6,29.88,SE,129,0.9,2.0,95,0.00,,,0.00,meteobridge,2017-05-28 08:02:00,
2017-05-28 04:07:00,62.1,60.6,29.88,SE,128,0.0,1.0,95,0.00,,,0.00,meteobridge,2017-05-28 08:07:00,
2017-05-28 04:12:00,62.1,60.6,29.88,SW,231,0.0,1.0,95,0.00,,,0.00,meteobridge,2017-05-28 08:12:00,
2017-05-28 04:17:00,62.1,60.6,29.88,South,176,0.0,1.0,95,0.00,,,0.00,meteobridge,2017-05-28 08:17:00,
2017-05-28 04:22:00,62.2,60.8,29.88,SE,140,0.0,0.0,95,0.00,,,0.00,meteobridge,2017-05-28 08:22:00,
2017-05-28 04:27:00,62.2,60.8,29.88,WSW,255,2.0,2.0,95,0.00,,,0.00,meteobridge,2017-05-28 08:27:00,
2017-05-28 04:32:00,62.2,60.8,29.88,SW,236,0.9,1.0,95,0.00,,,0.00,meteobridge,2017-05-28 08:32:00,
2017-05-28 04:37:00,62.2,60.8,29.88,WSW,241,0.0,0.0,95,0.00,,,0.00,meteobridge,2017-05-28 08:37:00,
2017-05-28 04:42:00,62.2,60.8,29.89,WSW,242,0.0,1.0,95,0.00,,,0.00,meteobridge,2017-05-28 08:42:00,
2017-05-28 04:45:00,62.2,60.8,29.89,WSW,242,0.0,0.0,95,0.00,,,0.00,meteobridge,2017-05-28 08:45:00,
2017-05-28 04:50:00,62.2,60.8,29.89,WSW,242,0.0,0.0,95,0.00,,,0.00,meteobridge,2017-05-28 08:50:00,
2017-05-28 04:55:00,62.2,60.8,29.89,SSE,155,0.0,1.0,95,0.00,,,0.00,meteobridge,2017-05-28 08:55:00,
2017-05-28 05:00:00,62.4,61.0,29.89,ESE,117,0.0,0.0,95,0.00,,,0.00,meteobridge,2017-05-28 09:00:00,
2017-05-28 05:05:00,62.4,61.0,29.88,ESE,117,0.0,1.0,95,0.00,,,0.00,meteobridge,2017-05-28 09:05:00,
2017-05-28 05:10:00,62.4,61.0,29.88,SE,124,0.9,2.0,95,0.00,,,0.00,meteobridge,2017-05-28 09:10:00,
2017-05-28 05:15:00,62.4,61.0,29.88,SE,127,2.0,3.0,95,0.00,,,0.00,meteobridge,2017-05-28 09:15:00,
2017-05-28 05:20:00,62.6,61.2,29.88,ESE,110,0.0,2.0,95,0.00,,,0.00,meteobridge,2017-05-28 09:20:00,
2017-05-28 05:25:00,62.6,60.8,29.88,ESE,109,0.0,1.0,94,0.00,,,0.00,meteobridge,2017-05-28 09:25:00,
2017-05-28 05:30:00,62.8,61.0,29.88,East,99,0.0,1.0,94,0.00,,,0.00,meteobridge,2017-05-28 09:30:00,
2017-05-28 05:35:00,62.8,61.0,29.88,East,80,0.0,0.0,94,0.00,,,0.00,meteobridge,2017-05-28 09:35:00,
2017-05-28 05:40:00,62.8,61.0,29.88,ESE,118,0.0,1.0,94,0.00,,,0.00,meteobridge,2017-05-28 09:40:00,
2017-05-28 05:45:00,62.8,61.0,29.87,ESE,118,0.0,0.0,94,0.00,,,0.00,meteobridge,2017-05-28 09:45:00,
2017-05-28 05:50:00,62.8,61.0,29.88,ESE,118,0.0,0.0,94,0.00,,,0.00,meteobridge,2017-05-28 09:50:00,
2017-05-28 05:55:00,63.0,61.2,29.88,NE,41,0.0,1.0,94,0.00,,,0.00,meteobridge,2017-05-28 09:55:00,
2017-05-28 06:00:00,63.0,61.2,29.87,ENE,72,0.9,1.0,94,0.00,,,0.00,meteobridge,2017-05-28 10:00:00,
2017-05-28 06:05:00,63.0,61.2,29.87,East,86,0.0,1.0,94,0.00,,,0.00,meteobridge,2017-05-28 10:05:00,
2017-05-28 06:10:00,63.1,61.7,29.87,NE,51,0.9,1.0,95,0.00,,,0.00,meteobridge,2017-05-28 10:10:00,
2017-05-28 06:15:00,63.3,61.5,29.87,ENE,59,0.0,1.0,94,0.00,,,0.00,meteobridge,2017-05-28 10:15:00,
2017-05-28 06:20:00,63.3,61.5,29.87,East,89,0.9,1.0,94,0.00,,,0.00,meteobridge,2017-05-28 10:20:00,
2017-05-28 06:25:00,63.3,61.5,29.87,SE,127,0.0,0.0,94,0.00,,,0.00,meteobridge,2017-05-28 10:25:00,
2017-05-28 06:31:00,63.7,61.9,29.87,North,6,0.9,1.0,94,0.00,,,0.00,meteobridge,2017-05-28 10:31:00,
2017-05-28 06:36:00,64.0,62.2,29.88,North,6,0.0,1.0,94,0.00,,,0.00,meteobridge,2017-05-28 10:36:00,
2017-05-28 06:41:00,64.0,62.2,29.88,North,6,0.0,0.0,94,0.00,,,0.00,meteobridge,2017-05-28 10:41:00,
2017-05-28 06:46:00,64.0,62.2,29.88,WNW,301,0.9,1.0,94,0.00,,,0.00,meteobridge,2017-05-28 10:46:00,
2017-05-28 06:51:00,64.0,62.2,29.89,West,263,0.9,1.0,94,0.00,,,0.00,meteobridge,2017-05-28 10:51:00,
2017-05-28 06:52:00,64.0,62.2,29.89,NNW,331,3.0,3.0,94,0.00,,,0.00,meteobridge,2017-05-28 10:52:00,
2017-05-28 06:57:00,64.0,62.2,29.89,NW,316,2.0,4.0,94,0.00,,,0.00,meteobridge,2017-05-28 10:57:00,
2017-05-28 07:03:00,64.0,62.2,29.89,NW,316,2.0,3.0,94,0.00,,,0.00,meteobridge,2017-05-28 11:03:00,
2017-05-28 07:13:00,64.6,62.4,29.89,NNW,330,0.9,3.0,93,0.00,,,0.00,meteobridge,2017-05-28 11:13:00,
2017-05-28 07:18:00,64.6,62.4,29.88,NE,41,2.0,3.0,93,0.00,,,0.00,meteobridge,2017-05-28 11:18:00,
2017-05-28 07:23:00,64.6,62.4,29.88,ENE,75,0.0,1.0,93,0.00,,,0.00,meteobridge,2017-05-28 11:23:00,
2017-05-28 07:28:00,64.9,62.8,29.88,East,88,0.9,1.0,93,0.00,,,0.00,meteobridge,2017-05-28 11:28:00,
2017-05-28 07:33:00,65.5,63.1,29.88,East,88,0.0,0.0,92,0.00,,,0.00,meteobridge,2017-05-28 11:33:00,
2017-05-28 07:38:00,65.8,63.1,29.88,SSE,167,0.0,1.0,91,0.00,,,0.00,meteobridge,2017-05-28 11:38:00,
2017-05-28 07:43:00,65.8,63.1,29.88,SSW,208,0.9,2.0,91,0.00,,,0.00,meteobridge,2017-05-28 11:43:00,
2017-05-28 07:48:00,66.0,63.3,29.88,SE,132,0.0,1.0,91,0.00,,,0.00,meteobridge,2017-05-28 11:48:00,
2017-05-28 07:53:00,66.4,63.7,29.88,SSE,153,0.0,1.0,91,0.00,,,0.00,meteobridge,2017-05-28 11:53:00,
2017-05-28 07:58:00,67.1,64.0,29.88,SSW,212,0.9,1.0,90,0.00,,,0.00,meteobridge,2017-05-28 11:58:00,